FW9925 Weather Reports


time (UTC)temp
C
wind
direction
speed
KPH
gust
KPH
rain 1hr
cm
rain 24hr
cm
rain mn
cm
humidity
%
barometer
mb
20260504001536 11 266 1.6 8.0 0.00 0.00 0.00 69 1007.6
20260504001013 12 232 4.8 16.1 0.00 0.00 0.00 69 1008.2
20260504000512 12 255 4.8 12.9 0.00 0.00 0.00 68 1008.3
20260504000037 11 252 3.2 8.0 0.00 0.00 0.00 69 1007.5
20260504000029 12 220 4.8 12.9 0.00 0.00 0.00 68 1008.5
20260503235516 11 302 6.4 12.9 0.00 0.00 0.00 68 1008.4
20260503235013 11 265 1.6 11.3 0.00 0.00 0.00 69 1008.5
20260503234549 11 264 4.8 12.9 0.00 0.00 0.00 68 1007.7
20260503234530 11 243 0.0 8.0 0.00 0.00 0.00 69 1008.6
20260503234012 11 240 3.2 8.0 0.00 0.00 0.00 69 1008.6
20260503233513 11 0 1.6 14.5 0.00 0.00 0.00 69 1008.6
20260503233043 11 235 1.6 9.7 0.00 0.00 0.00 69 1008.0
20260503233030 11 0 4.8 14.5 0.00 0.00 0.00 69 1008.7
20260503232515 11 0 1.6 12.9 0.00 0.00 0.00 69 1008.7
20260503232015 11 248 4.8 17.7 0.00 0.00 0.00 69 1008.8
20260503231541 11 122 1.6 14.5 0.00 0.00 0.00 70 1008.0
20260503231532 11 248 4.8 17.7 0.00 0.00 0.00 70 1008.8
20260503231011 11 257 4.8 14.5 0.00 0.00 0.00 70 1008.8
20260503230514 11 226 3.2 14.5 0.00 0.00 0.00 70 1008.7
20260503230044 11 241 3.2 12.9 0.00 0.00 0.00 71 1008.1
20260503230032 11 319 6.4 16.1 0.00 0.00 0.00 70 1008.7
20260503225513 11 0 3.2 17.7 0.00 0.00 0.00 71 1008.8
20260503225013 11 223 4.8 17.7 0.00 0.00 0.00 71 1009.0
20260503224538 11 233 3.2 11.3 0.00 0.00 0.00 72 1008.2
20260503224529 11 244 6.4 19.3 0.00 0.00 0.00 71 1008.9
20260503224013 11 270 3.2 24.1 0.00 0.00 0.00 72 1008.9
20260503223513 11 247 4.8 24.1 0.00 0.00 0.00 72 1009.0
20260503223035 11 247 4.8 11.3 0.00 0.00 0.00 73 1008.3
20260503223032 11 238 9.7 24.1 0.00 0.00 0.00 72 1008.9
20260503222513 11 211 4.8 20.9 0.00 0.00 0.00 72 1009.0
20260503222013 11 276 3.2 17.7 0.00 0.00 0.00 72 1009.1
20260503221535 10 257 4.8 16.1 0.00 0.00 0.00 74 1008.4
20260503221533 11 273 3.2 19.3 0.00 0.00 0.00 72 1009.2
20260503221016 11 303 6.4 24.1 0.00 0.00 0.00 72 1009.3
20260503220516 11 244 6.4 24.1 0.00 0.00 0.00 72 1009.3
20260503220051 10 254 4.8 14.5 0.00 0.00 0.00 74 1008.5
20260503220029 11 267 9.7 24.1 0.00 0.00 0.00 71 1009.2
20260503215514 11 227 4.8 14.5 0.00 0.00 0.00 71 1009.3
20260503215013 11 257 4.8 20.9 0.00 0.00 0.00 71 1009.3
20260503214541 10 269 1.6 12.9 0.00 0.00 0.00 73 1008.7
20260503214013 11 298 8.0 22.5 0.00 0.00 0.00 72 1009.3
20260503213512 11 275 11.3 22.5 0.00 0.00 0.00 71 1009.2
20260503213040 11 234 6.4 12.9 0.00 0.00 0.00 71 1008.6
20260503213031 11 248 4.8 30.6 0.00 0.00 0.00 72 1009.1
20260503212514 11 205 9.7 30.6 0.00 0.00 0.00 71 1009.3
20260503212014 12 244 9.7 24.1 0.00 0.00 0.00 70 1009.0
20260503211540 11 188 8.0 14.5 0.00 0.00 0.00 68 1008.4
20260503211534 12 184 6.4 24.1 0.00 0.00 0.00 69 1009.0
20260503211013 12 294 9.7 33.8 0.00 0.00 0.00 66 1008.9
20260503210514 13 291 9.7 33.8 0.00 0.00 0.00 63 1008.7
20260503210038 12 354 6.4 17.7 0.00 0.00 0.00 62 1008.2
20260503210033 13 309 4.8 16.1 0.00 0.00 0.00 58 1008.6
20260503205513 13 200 4.8 29.0 0.00 0.00 0.00 57 1008.5
20260503205013 13 273 9.7 29.0 0.00 0.00 0.00 57 1008.4
20260503204534 13 319 14.5 29.0 0.00 0.00 0.00 55 1008.5
20260503204014 13 231 11.3 25.7 0.00 0.00 0.00 56 1008.4
20260503203513 13 256 12.9 25.7 0.00 0.00 0.00 56 1008.5
20260503203041 12 266 3.2 6.4 0.00 0.00 0.00 56 1007.6
20260503203036 12 234 3.2 9.7 0.00 0.00 0.00 58 1008.4
20260503202514 12 218 1.6 9.7 0.00 0.00 0.00 58 1008.4
20260503202015 12 216 1.6 6.4 0.00 0.00 0.00 59 1008.3
20260503201544 12 248 1.6 8.0 0.00 0.00 0.00 54 1007.6
20260503201532 11 184 1.6 6.4 0.00 0.00 0.00 60 1008.4
20260503201016 11 0 0.0 9.7 0.00 0.00 0.00 62 1008.3
20260503200513 10 169 4.8 9.7 0.00 0.00 0.00 62 1008.5
20260503200047 11 271 4.8 11.3 0.00 0.00 0.00 55 1008.0
20260503200037 10 217 1.6 8.0 0.00 0.00 0.00 62 1008.6
20260503195510 10 222 1.6 9.7 0.00 0.00 0.00 63 1008.7
20260503195013 10 169 3.2 12.9 0.00 0.00 0.00 63 1008.6
20260503194543 12 255 4.8 9.7 0.00 0.00 0.00 52 1008.0
20260503194532 10 210 4.8 14.5 0.00 0.00 0.00 63 1008.7
20260503194013 10 138 4.8 14.5 0.00 0.00 0.00 61 1008.8
20260503193513 11 173 8.0 14.5 0.00 0.00 0.00 59 1008.9
20260503193046 12 217 4.8 11.3 0.00 0.00 0.00 50 1008.0
20260503193036 11 224 6.4 12.9 0.00 0.00 0.00 58 1008.9
20260503192512 11 221 4.8 12.9 0.00 0.00 0.00 58 1009.1
20260503192011 11 0 1.6 16.1 0.00 0.00 0.00 57 1009.2
20260503191535 12 153 3.2 8.0 0.00 0.00 0.00 52 1008.4
20260503191531 11 0 4.8 16.1 0.00 0.00 0.00 57 1009.3
20260503191013 11 226 3.2 14.5 0.00 0.00 0.00 57 1009.5
20260503190516 11 187 4.8 14.5 0.00 0.00 0.00 56 1009.6
20260503190041 12 235 4.8 11.3 0.00 0.00 0.00 50 1008.8
20260503190032 12 137 4.8 12.9 0.00 0.00 0.00 54 1009.8
20260503185513 11 184 6.4 16.1 0.00 0.00 0.00 54 1009.8
20260503185015 11 159 6.4 16.1 0.00 0.00 0.00 54 1009.9
20260503184554 12 181 4.8 20.9 0.00 0.00 0.00 44 1009.1
20260503184540 12 137 8.0 16.1 0.00 0.00 0.00 50 1010.1
20260503184013 12 141 4.8 17.7 0.00 0.00 0.00 47 1010.2
20260503183510 11 192 9.7 19.3 0.00 0.00 0.00 46 1010.2
20260503183054 12 239 8.0 14.5 0.00 0.00 0.00 41 1009.2
20260503183035 12 151 6.4 19.3 0.00 0.00 0.00 45 1010.3
20260503182515 12 165 8.0 17.7 0.00 0.00 0.00 43 1010.5
20260503182015 12 175 6.4 17.7 0.00 0.00 0.00 42 1010.6
20260503181541 12 210 4.8 19.3 0.00 0.00 0.00 39 1009.4
20260503181530 12 198 6.4 16.1 0.00 0.00 0.00 42 1010.7
20260503181011 12 210 9.7 19.3 0.00 0.00 0.00 41 1010.9
20260503180514 11 189 8.0 19.3 0.00 0.00 0.00 42 1011.0
20260503180044 12 223 6.4 16.1 0.00 0.00 0.00 41 1011.1
20260503180040 12 182 9.7 25.7 0.00 0.00 0.00 38 1009.6
20260503175513 12 209 8.0 16.1 0.00 0.00 0.00 42 1011.1
20260503175012 12 207 6.4 19.3 0.00 0.00 0.00 41 1011.2
20260503174543 11 194 8.0 19.3 0.00 0.00 0.00 44 1011.2
20260503174013 11 199 8.0 20.9 0.00 0.00 0.00 44 1011.3
20260503173513 11 213 8.0 20.9 0.00 0.00 0.00 42 1011.4
20260503173047 12 259 6.4 17.7 0.00 0.00 0.00 38 1010.1
20260503173040 11 196 4.8 17.7 0.00 0.00 0.00 43 1011.5
20260503172513 11 239 8.0 17.7 0.00 0.00 0.00 42 1011.6
20260503172014 11 217 8.0 14.5 0.00 0.00 0.00 43 1011.7
20260503171540 12 212 8.0 17.7 0.00 0.00 0.00 37 1010.3
20260503171534 11 213 8.0 14.5 0.00 0.00 0.00 43 1011.8
20260503171013 11 224 6.4 16.1 0.00 0.00 0.00 43 1011.8
20260503170513 10 190 4.8 16.1 0.00 0.00 0.00 45 1012.1
20260503151013 6 211 8.0 17.7 0.00 0.00 0.00 66 1013.3
20260503150517 6 215 8.0 17.7 0.00 0.00 0.00 66 1013.4
20260503131013 6 221 3.2 12.9 0.00 0.00 0.00 65 1014.0
20260503130513 6 192 3.2 12.9 0.00 0.00 0.00 66 1013.9
20260503110511 2 0 0.0 3.2 0.00 0.00 0.00 69 1014.0
20260503090512 1 0 0.0 1.6 0.00 0.00 0.00 71 1014.4
20260503081554 -1 0 0.0 0.0 0.00 0.00 0.00 76 1013.7
20260503081538 1 0 0.0 1.6 0.00 0.00 0.00 70 1014.6
20260503081010 1 0 0.0 1.6 0.00 0.00 0.00 70 1014.6
20260503080509 1 0 0.0 1.6 0.00 0.00 0.00 70 1014.7
20260503072512 1 0 0.0 1.6 0.00 0.00 0.00 66 1014.6
20260503072013 1 0 0.0 1.6 0.00 0.00 0.00 65 1014.7
20260503071540 -1 0 0.0 0.0 0.00 0.00 0.00 74 1013.8
20260503071528 1 0 0.0 1.6 0.00 0.00 0.00 64 1014.7
20260503071011 1 0 0.0 1.6 0.00 0.00 0.00 64 1014.6
20260503070511 1 0 0.0 3.2 0.00 0.00 0.00 64 1014.6
20260503055011 2 0 0.0 1.6 0.00 0.00 0.00 59 1015.2
20260503054549 0 0 0.0 0.0 0.00 0.00 0.00 71 1014.1
20260503054531 2 0 0.0 1.6 0.00 0.00 0.00 59 1015.1
20260503054010 3 0 0.0 1.6 0.00 0.00 0.00 58 1015.2
20260503053510 3 0 0.0 1.6 0.00 0.00 0.00 58 1015.2
20260503053042 0 0 0.0 0.0 0.00 0.00 0.00 71 1014.3
20260503053028 3 0 0.0 3.2 0.00 0.00 0.00 57 1015.3
20260503052512 3 0 0.0 3.2 0.00 0.00 0.00 57 1015.3
20260503052009 3 0 0.0 1.6 0.00 0.00 0.00 56 1015.3
20260503051536 0 0 0.0 0.0 0.00 0.00 0.00 71 1014.4
20260503051534 3 0 0.0 1.6 0.00 0.00 0.00 55 1015.3
20260503051012 3 0 0.0 3.2 0.00 0.00 0.00 55 1015.3
20260503050509 3 0 0.0 3.2 0.00 0.00 0.00 55 1015.4
20260503050038 0 0 0.0 0.0 0.00 0.00 0.00 71 1014.3
20260503050026 3 0 0.0 3.2 0.00 0.00 0.00 55 1015.4
20260503045514 3 0 0.0 3.2 0.00 0.00 0.00 56 1015.3
20260503045009 3 315 0.0 3.2 0.00 0.00 0.00 56 1015.4
20260503044543 1 0 0.0 0.0 0.00 0.00 0.00 71 1014.4
20260503044532 3 0 0.0 3.2 0.00 0.00 0.00 56 1015.4
20260503044009 4 306 0.0 3.2 0.00 0.00 0.00 55 1015.4
20260503043510 4 300 0.0 3.2 0.00 0.00 0.00 55 1015.5
20260503043043 1 0 0.0 0.0 0.00 0.00 0.00 71 1014.4
20260503043029 4 315 0.0 6.4 0.00 0.00 0.00 55 1015.4
20260503042510 4 0 0.0 6.4 0.00 0.00 0.00 55 1015.5
20260503042012 4 340 1.6 6.4 0.00 0.00 0.00 55 1015.5
20260503041546 1 0 0.0 0.0 0.00 0.00 0.00 70 1014.5
20260503041527 4 0 0.0 4.8 0.00 0.00 0.00 55 1015.5
20260503041014 5 314 0.0 4.8 0.00 0.00 0.00 54 1015.5
20260503040511 5 330 0.0 4.8 0.00 0.00 0.00 54 1015.6
20260503040046 2 0 0.0 0.0 0.00 0.00 0.00 68 1014.6
20260503040028 5 350 1.6 6.4 0.00 0.00 0.00 53 1015.6
20260503035512 5 333 1.6 6.4 0.00 0.00 0.00 52 1015.5
20260503035012 5 304 0.0 4.8 0.00 0.00 0.00 53 1015.6
20260503034541 2 0 0.0 0.0 0.00 0.00 0.00 66 1014.5
20260503034529 5 332 1.6 4.8 0.00 0.00 0.00 54 1015.6
20260503034011 5 315 0.0 3.2 0.00 0.00 0.00 54 1015.6
20260503033516 5 0 0.0 4.8 0.00 0.00 0.00 54 1015.7
20260503033040 2 0 0.0 0.0 0.00 0.00 0.00 64 1014.5
20260503033036 5 318 0.0 4.8 0.00 0.00 0.00 53 1015.6
20260503032512 6 0 1.6 12.9 0.00 0.00 0.00 51 1015.6
20260503032010 6 0 1.6 12.9 0.00 0.00 0.00 51 1015.6
20260503031552 3 0 0.0 0.0 0.00 0.00 0.00 63 1014.5
20260503031532 6 227 1.6 12.9 0.00 0.00 0.00 50 1015.6
20260503031012 6 0 3.2 11.3 0.00 0.00 0.00 51 1015.5
20260503030512 6 231 1.6 11.3 0.00 0.00 0.00 52 1015.6
20260503030048 6 286 1.6 14.5 0.00 0.00 0.00 51 1015.6
20260503030040 3 0 0.0 0.0 0.00 0.00 0.00 61 1014.5
20260503025512 6 290 1.6 14.5 0.00 0.00 0.00 51 1015.6
20260503025012 6 285 4.8 12.9 0.00 0.00 0.00 52 1015.6
20260503024552 3 0 0.0 0.0 0.00 0.00 0.00 61 1014.5
20260503024533 6 248 3.2 8.0 0.00 0.00 0.00 53 1015.7
20260503024010 6 0 0.0 3.2 0.00 0.00 0.00 53 1015.7
20260503023511 6 0 0.0 6.4 0.00 0.00 0.00 53 1015.7
20260503023039 3 0 0.0 0.0 0.00 0.00 0.00 63 1014.7
20260503023026 6 0 0.0 6.4 0.00 0.00 0.00 52 1015.7
20260503022511 6 265 3.2 6.4 0.00 0.00 0.00 51 1015.8
20260503022012 6 238 1.6 8.0 0.00 0.00 0.00 51 1015.7
20260503021535 3 0 0.0 0.0 0.00 0.00 0.00 64 1014.7
20260503021527 6 254 3.2 8.0 0.00 0.00 0.00 51 1015.8
20260503021012 6 253 1.6 11.3 0.00 0.00 0.00 51 1015.8
20260503020512 6 0 0.0 11.3 0.00 0.00 0.00 51 1015.8
20260503020034 3 0 0.0 0.0 0.00 0.00 0.00 63 1014.7
20260503020028 6 270 1.6 11.3 0.00 0.00 0.00 51 1015.8
20260503015510 6 248 3.2 9.7 0.00 0.00 0.00 51 1015.8
20260503015013 6 242 1.6 9.7 0.00 0.00 0.00 51 1015.7
20260503014543 3 0 0.0 0.0 0.00 0.00 0.00 63 1014.6
20260503014529 6 250 3.2 6.4 0.00 0.00 0.00 52 1015.7
20260503014012 6 0 1.6 4.8 0.00 0.00 0.00 52 1015.7
20260503013512 6 0 0.0 4.8 0.00 0.00 0.00 52 1015.8
20260503013043 3 0 0.0 0.0 0.00 0.00 0.00 61 1014.6
20260503013029 6 0 0.0 3.2 0.00 0.00 0.00 53 1015.7
20260503012510 6 0 0.0 3.2 0.00 0.00 0.00 52 1015.8
20260503012009 6 0 0.0 3.2 0.00 0.00 0.00 52 1015.8
20260503011544 4 0 0.0 0.0 0.00 0.00 0.00 59 1014.6
20260503011526 6 277 0.0 3.2 0.00 0.00 0.00 51 1015.8
20260503011013 6 0 0.0 1.6 0.00 0.00 0.00 51 1015.7
20260503010517 6 0 0.0 9.7 0.00 0.00 0.00 50 1015.8
20260503010041 5 0 0.0 0.0 0.00 0.00 0.00 55 1014.6
20260503010028 6 0 0.0 12.9 0.00 0.00 0.00 50 1015.7
20260503005512 6 311 4.8 12.9 0.00 0.00 0.00 49 1015.7
20260503005011 6 278 1.6 9.7 0.00 0.00 0.00 50 1015.7
20260503004601 6 0 0.0 0.0 0.00 0.00 0.00 52 1014.5
20260503004555 6 297 3.2 9.7 0.00 0.00 0.00 50 1015.5
20260503004008 6 293 3.2 8.0 0.00 0.00 0.00 49 1015.5
20260503003512 7 305 0.0 8.0 0.00 0.00 0.00 50 1015.5
20260503003034 6 0 0.0 3.2 0.00 0.00 0.00 50 1014.3
20260503003030 7 324 1.6 14.5 0.00 0.00 0.00 50 1015.5
20260503002510 7 345 4.8 14.5 0.00 0.00 0.00 49 1015.5